Location: Central Falls
(41.8900°N, 71.3929°W)
Time: 03:32:16
(UTC+00:00)

Tiros 1 - Pass Details

Date: 11 December 2023
Orbit: 625 x 658 km, 48.4° (Epoch: 01 March)

Event Time Altitude Azimuth Distance (km) Brightness Sun altitude
Rises 06:45:57 0° 235° (SW) 2,953 - -57.4°
Reaches altitude 10° 06:48:17 10° 234° (SW) 2,050 - -57.1°
Maximum altitude 06:53:00 76° 149° (SSE) 678 - -56.3°
Drops below altitude 10° 06:57:47 10° 64° (ENE) 2,073 - -55.4°
Sets 07:00:09 0° 63° (ENE) 2,988 - -55.0°
